Year,Month,Day,Hour,Minute,Value (Times are PST for temperature in C)
2007,03,19,06,44,7.10
2007,03,19,06,45,7.10
2007,03,19,06,46,7.10
2007,03,19,06,47,7.10
2007,03,19,06,48,7.10
2007,03,19,06,49,7.10
2007,03,19,06,50,7.10
2007,03,19,06,51,7.10
2007,03,19,06,52,7.10
2007,03,19,06,53,7.10
2007,03,19,06,54,7.10
2007,03,19,06,55,7.10
2007,03,19,06,56,7.10
2007,03,19,06,57,7.10
2007,03,19,06,58,7.10
2007,03,19,06,59,7.20
2007,03,19,07,00,7.20
2007,03,19,07,01,7.20
2007,03,19,07,02,7.20
2007,03,19,07,03,7.20
2007,03,19,07,04,7.20
2007,03,19,07,05,7.20
2007,03,19,07,06,7.20
2007,03,19,07,07,7.20
2007,03,19,07,08,7.20
2007,03,19,07,09,7.20
2007,03,19,07,10,7.20
2007,03,19,07,11,7.20
2007,03,19,07,12,7.20
2007,03,19,07,13,7.20
2007,03,19,07,14,7.20
2007,03,19,07,15,7.20
2007,03,19,07,16,7.20
2007,03,19,07,17,7.20
2007,03,19,07,18,7.20
2007,03,19,07,19,7.20
2007,03,19,07,20,7.20
2007,03,19,07,21,7.20
2007,03,19,07,22,7.20
2007,03,19,07,23,7.20
2007,03,19,07,24,7.20
2007,03,19,07,25,7.20
2007,03,19,07,26,7.20
2007,03,19,07,27,7.20
2007,03,19,07,28,7.20
2007,03,19,07,29,7.20
2007,03,19,07,30,7.20
2007,03,19,07,31,7.20
2007,03,19,07,32,7.20
2007,03,19,07,33,7.20
2007,03,19,07,34,7.20
2007,03,19,07,35,7.20
2007,03,19,07,36,7.20
2007,03,19,07,37,7.20
2007,03,19,07,38,7.20
2007,03,19,07,39,7.20
2007,03,19,07,40,7.20
2007,03,19,07,41,7.20
2007,03,19,07,42,7.20
2007,03,19,07,43,7.20
2007,03,19,07,44,7.20
2007,03,19,07,45,7.20
2007,03,19,07,46,7.20
2007,03,19,07,47,7.20
2007,03,19,07,48,7.20
2007,03,19,07,49,7.20
2007,03,19,07,50,7.20
2007,03,19,07,51,7.20
2007,03,19,07,52,7.20
2007,03,19,07,53,7.20
2007,03,19,07,54,7.20
2007,03,19,07,55,7.20
2007,03,19,07,56,7.20
2007,03,19,07,57,7.20
2007,03,19,07,58,7.20
2007,03,19,07,59,7.20
2007,03,19,08,00,7.20
2007,03,19,08,01,7.20
2007,03,19,08,02,7.20
2007,03,19,08,03,7.20
2007,03,19,08,04,7.20
2007,03,19,08,05,7.30
2007,03,19,08,06,7.30
2007,03,19,08,07,7.30
2007,03,19,08,08,7.30
2007,03,19,08,09,7.30
2007,03,19,08,10,7.30
2007,03,19,08,11,7.30
2007,03,19,08,12,7.30
2007,03,19,08,13,7.30
2007,03,19,08,14,7.30
2007,03,19,08,15,7.30
2007,03,19,08,16,7.30
2007,03,19,08,17,7.30
2007,03,19,08,18,7.30
2007,03,19,08,19,7.40
2007,03,19,08,20,7.40
2007,03,19,08,21,7.40
2007,03,19,08,22,7.40
2007,03,19,08,23,7.40
2007,03,19,08,24,7.40
2007,03,19,08,25,7.40
2007,03,19,08,26,7.40
2007,03,19,08,27,7.40
2007,03,19,08,28,7.40
2007,03,19,08,29,7.40
2007,03,19,08,30,7.40
2007,03,19,08,31,7.50
2007,03,19,08,32,7.50
2007,03,19,08,33,7.50
2007,03,19,08,34,7.50
2007,03,19,08,35,7.50
2007,03,19,08,36,7.50
2007,03,19,08,37,7.60
2007,03,19,08,38,7.60
2007,03,19,08,39,7.60
2007,03,19,08,40,7.60
2007,03,19,08,41,7.70
2007,03,19,08,42,7.70
2007,03,19,08,43,7.70
2007,03,19,08,44,7.70
2007,03,19,08,45,7.70
2007,03,19,08,46,7.70
2007,03,19,08,47,7.70
2007,03,19,08,48,7.70
2007,03,19,08,49,7.70
2007,03,19,08,50,7.70
2007,03,19,08,51,7.70
2007,03,19,08,52,7.70
2007,03,19,08,53,7.70
2007,03,19,08,54,7.70
2007,03,19,08,55,7.70
2007,03,19,08,56,7.70
2007,03,19,08,57,7.70
2007,03,19,08,58,7.70
2007,03,19,08,59,7.70
2007,03,19,09,00,7.70
2007,03,19,09,01,7.70
2007,03,19,09,02,7.70
2007,03,19,09,03,7.70
2007,03,19,09,04,7.70
2007,03,19,09,05,7.70
2007,03,19,09,06,7.70
2007,03,19,09,07,7.70
2007,03,19,09,08,7.70
2007,03,19,09,09,7.80
2007,03,19,09,10,7.80
2007,03,19,09,11,7.80
2007,03,19,09,12,7.80
2007,03,19,09,13,7.80
2007,03,19,09,14,7.80
2007,03,19,09,15,7.80
2007,03,19,09,16,7.80
2007,03,19,09,17,7.80
2007,03,19,09,18,7.80
2007,03,19,09,19,7.90
2007,03,19,09,20,7.90
2007,03,19,09,21,7.90
2007,03,19,09,22,8.00
2007,03,19,09,23,8.00
2007,03,19,09,24,8.00
2007,03,19,09,25,8.00
2007,03,19,09,26,8.00
2007,03,19,09,27,8.00
2007,03,19,09,28,8.00
2007,03,19,09,29,8.00
2007,03,19,09,30,8.00
2007,03,19,09,31,8.00
2007,03,19,09,32,8.10
2007,03,19,09,33,8.10
2007,03,19,09,34,8.10
2007,03,19,09,35,8.10
2007,03,19,09,36,8.10
2007,03,19,09,37,8.20
2007,03,19,09,38,8.20
2007,03,19,09,39,8.20
2007,03,19,09,40,8.20
2007,03,19,09,41,8.20
2007,03,19,09,42,8.30
2007,03,19,09,43,8.30
2007,03,19,09,44,8.30
2007,03,19,09,45,8.30
2007,03,19,09,46,8.30
2007,03,19,09,47,8.30
2007,03,19,09,48,8.30
2007,03,19,09,49,8.40
2007,03,19,09,50,8.40
2007,03,19,09,51,8.40
2007,03,19,09,52,8.40
2007,03,19,09,53,8.40
2007,03,19,09,54,8.40
2007,03,19,09,55,8.40
2007,03,19,09,56,8.40
2007,03,19,09,57,8.50
2007,03,19,09,58,8.50
2007,03,19,09,59,8.60
2007,03,19,10,00,8.60
2007,03,19,10,01,8.60
2007,03,19,10,02,8.60
2007,03,19,10,03,8.60
2007,03,19,10,04,8.60
2007,03,19,10,05,8.60
2007,03,19,10,06,8.60
2007,03,19,10,07,8.60
2007,03,19,10,08,8.60
2007,03,19,10,09,8.60
2007,03,19,10,10,8.70
2007,03,19,10,11,8.70
2007,03,19,10,12,8.70
2007,03,19,10,13,8.70
2007,03,19,10,14,8.80
2007,03,19,10,15,8.80
2007,03,19,10,16,8.80
2007,03,19,10,17,8.80
2007,03,19,10,18,8.80
2007,03,19,10,19,8.80
2007,03,19,10,20,8.90
2007,03,19,10,21,8.90
2007,03,19,10,22,8.90
2007,03,19,10,23,8.90
2007,03,19,10,24,8.90
2007,03,19,10,25,9.00
2007,03,19,10,26,9.00
2007,03,19,10,27,9.00
2007,03,19,10,28,9.10
2007,03,19,10,29,9.10
2007,03,19,10,30,9.10
2007,03,19,10,31,9.10
2007,03,19,10,32,9.10
2007,03,19,10,33,9.20
2007,03,19,10,34,9.20
2007,03,19,10,35,9.20
2007,03,19,10,36,9.20
2007,03,19,10,37,9.20
2007,03,19,10,38,9.20
2007,03,19,10,39,9.20
2007,03,19,10,40,9.20
2007,03,19,10,41,9.20
2007,03,19,10,42,9.20
2007,03,19,10,43,9.20
2007,03,19,10,44,9.20
2007,03,19,10,45,9.20
2007,03,19,10,46,9.20
2007,03,19,10,47,9.20
2007,03,19,10,48,9.20
2007,03,19,10,49,9.20
2007,03,19,10,50,9.20
2007,03,19,10,51,9.20
2007,03,19,10,52,9.20
2007,03,19,10,53,9.20
2007,03,19,10,54,9.20
2007,03,19,10,55,9.20
2007,03,19,10,56,9.20
2007,03,19,10,57,9.20
2007,03,19,10,58,9.20
2007,03,19,10,59,9.20
2007,03,19,11,00,9.20
2007,03,19,11,01,9.20
2007,03,19,11,02,9.10
2007,03,19,11,03,9.10
2007,03,19,11,04,9.10
2007,03,19,11,05,9.10
2007,03,19,11,06,9.00
2007,03,19,11,07,9.00
2007,03,19,11,08,8.90
2007,03,19,11,09,8.90
2007,03,19,11,10,8.90
2007,03,19,11,11,8.90
2007,03,19,11,12,8.90
2007,03,19,11,13,8.90
2007,03,19,11,14,8.90
2007,03,19,11,15,8.90
2007,03,19,11,16,8.90
2007,03,19,11,17,8.90
2007,03,19,11,18,8.90
2007,03,19,11,19,8.90
2007,03,19,11,20,8.90
2007,03,19,11,21,8.90
2007,03,19,11,22,8.90
2007,03,19,11,23,8.80
2007,03,19,11,24,8.80
2007,03,19,11,25,8.80
2007,03,19,11,26,8.80
2007,03,19,11,27,8.80
2007,03,19,11,28,8.80
2007,03,19,11,29,8.80
2007,03,19,11,30,8.80
2007,03,19,11,31,8.70
2007,03,19,11,32,8.70
2007,03,19,11,33,8.70
2007,03,19,11,34,8.70
2007,03,19,11,35,8.70
2007,03,19,11,36,8.70
2007,03,19,11,37,8.70
2007,03,19,11,38,8.60
2007,03,19,11,39,8.60
2007,03,19,11,40,8.60
2007,03,19,11,41,8.60
2007,03,19,11,42,8.70
2007,03,19,11,43,8.70
2007,03,19,11,44,8.70
2007,03,19,11,45,8.60
2007,03,19,11,46,8.60
2007,03,19,11,47,8.60
2007,03,19,11,48,8.60
2007,03,19,11,49,8.60
2007,03,19,11,50,8.50
2007,03,19,11,51,8.50
2007,03,19,11,52,8.50
2007,03,19,11,53,8.50
2007,03,19,11,54,8.50
2007,03,19,11,55,8.50
2007,03,19,11,56,8.60
2007,03,19,11,57,8.60
2007,03,19,11,58,8.60
2007,03,19,11,59,8.60
2007,03,19,12,00,8.70
2007,03,19,12,01,8.70
2007,03,19,12,02,8.70
2007,03,19,12,03,8.80
2007,03,19,12,04,8.70
2007,03,19,12,05,8.70
2007,03,19,12,06,8.70
2007,03,19,12,07,8.70
2007,03,19,12,08,8.60
2007,03,19,12,09,8.60
2007,03,19,12,10,8.60
2007,03,19,12,11,8.70
2007,03,19,12,12,8.70
2007,03,19,12,13,8.70
2007,03,19,12,14,8.70
2007,03,19,12,15,8.70
2007,03,19,12,16,8.80
2007,03,19,12,17,8.80
2007,03,19,12,18,8.90
2007,03,19,12,19,8.90
2007,03,19,12,20,8.90
2007,03,19,12,21,8.90
2007,03,19,12,22,9.00
2007,03,19,12,23,9.00
2007,03,19,12,24,9.10
2007,03,19,12,25,9.10
2007,03,19,12,26,9.10
2007,03,19,12,27,9.10
2007,03,19,12,28,9.10
2007,03,19,12,29,9.10
2007,03,19,12,30,9.10
2007,03,19,12,31,9.10
2007,03,19,12,32,9.10
2007,03,19,12,33,9.10
2007,03,19,12,34,9.10
2007,03,19,12,35,9.10
2007,03,19,12,36,9.10
2007,03,19,12,37,9.10
2007,03,19,12,38,9.10
2007,03,19,12,39,9.10
2007,03,19,12,40,9.10
2007,03,19,12,41,9.10
2007,03,19,12,42,9.10
2007,03,19,12,43,9.10
2007,03,19,12,44,9.10
2007,03,19,12,45,9.10
2007,03,19,12,46,9.10
2007,03,19,12,47,9.10
2007,03,19,12,48,9.10
2007,03,19,12,49,9.10
2007,03,19,12,50,9.10
2007,03,19,12,51,9.10
2007,03,19,12,52,9.10
2007,03,19,12,53,9.10
2007,03,19,12,54,9.10
2007,03,19,12,55,9.10
2007,03,19,12,56,9.10
2007,03,19,12,57,9.10
2007,03,19,12,58,9.20
2007,03,19,12,59,9.20
2007,03,19,13,00,9.20
2007,03,19,13,01,9.20
2007,03,19,13,02,9.20
2007,03,19,13,03,9.20
2007,03,19,13,04,9.20
2007,03,19,13,05,9.20
2007,03,19,13,06,9.20
2007,03,19,13,07,9.20
2007,03,19,13,08,9.20
2007,03,19,13,09,9.20
2007,03,19,13,10,9.20
2007,03,19,13,11,9.10
2007,03,19,13,12,9.10
2007,03,19,13,13,9.10
2007,03,19,13,14,9.10
2007,03,19,13,15,9.10
2007,03,19,13,16,9.10
2007,03,19,13,17,9.10
2007,03,19,13,18,9.10
2007,03,19,13,19,9.10
2007,03,19,13,20,9.10
2007,03,19,13,21,9.10
2007,03,19,13,22,9.10
2007,03,19,13,23,9.10
2007,03,19,13,24,9.10
2007,03,19,13,25,9.10
2007,03,19,13,26,9.10
2007,03,19,13,27,9.10
2007,03,19,13,28,9.10
2007,03,19,13,29,9.10
2007,03,19,13,30,9.10
2007,03,19,13,31,9.10
2007,03,19,13,32,9.10
2007,03,19,13,33,9.10
2007,03,19,13,34,9.10
2007,03,19,13,35,9.10
2007,03,19,13,36,9.10
2007,03,19,13,37,9.10
2007,03,19,13,38,9.10
2007,03,19,13,39,9.00
2007,03,19,13,40,9.00
2007,03,19,13,41,9.00
2007,03,19,13,42,9.00
2007,03,19,13,43,8.90
2007,03,19,13,44,8.90
2007,03,19,13,45,8.90
2007,03,19,13,46,8.90
2007,03,19,13,47,8.90
2007,03,19,13,48,8.90
2007,03,19,13,49,8.90
2007,03,19,13,50,8.90
2007,03,19,13,51,8.90
2007,03,19,13,52,8.90
2007,03,19,13,53,8.90
2007,03,19,13,54,8.80
2007,03,19,13,55,8.80
2007,03,19,13,56,8.80
2007,03,19,13,57,8.80
2007,03,19,13,58,8.80
2007,03,19,13,59,8.80
2007,03,19,14,00,8.80
2007,03,19,14,01,8.80
2007,03,19,14,02,8.80
2007,03,19,14,03,8.80
2007,03,19,14,04,8.90
2007,03,19,14,05,8.90
2007,03,19,14,06,8.90
2007,03,19,14,07,8.90
2007,03,19,14,08,8.90
2007,03,19,14,09,9.00
2007,03,19,14,10,9.00
2007,03,19,14,11,9.00
2007,03,19,14,12,9.10
2007,03,19,14,13,9.10
2007,03,19,14,14,9.10
2007,03,19,14,15,9.10
2007,03,19,14,16,9.20
2007,03,19,14,17,9.20
2007,03,19,14,18,9.20
2007,03,19,14,19,9.20
2007,03,19,14,20,9.20
2007,03,19,14,21,9.20
2007,03,19,14,22,9.20
2007,03,19,14,23,9.30
2007,03,19,14,24,9.30
2007,03,19,14,25,9.30
2007,03,19,14,26,9.30
2007,03,19,14,27,9.30
2007,03,19,14,28,9.40
2007,03,19,14,29,9.40
2007,03,19,14,30,9.40
2007,03,19,14,31,9.50
2007,03,19,14,32,9.60
2007,03,19,14,33,9.60
2007,03,19,14,34,9.60
2007,03,19,14,35,9.60
2007,03,19,14,36,9.60
2007,03,19,14,37,9.70
2007,03,19,14,38,9.70
2007,03,19,14,39,9.80
2007,03,19,14,40,9.90
2007,03,19,14,41,9.90
2007,03,19,14,42,9.90
2007,03,19,14,43,10.00
2007,03,19,14,44,10.10
2007,03,19,14,45,10.20
2007,03,19,14,46,10.20
2007,03,19,14,47,10.30
2007,03,19,14,48,10.30
2007,03,19,14,49,10.40
2007,03,19,14,50,10.50
2007,03,19,14,51,10.50
2007,03,19,14,52,10.60
2007,03,19,14,53,10.60
2007,03,19,14,54,10.70
2007,03,19,14,55,10.70
2007,03,19,14,56,10.70
2007,03,19,14,57,10.70
2007,03,19,14,58,10.70
2007,03,19,14,59,10.80
2007,03,19,15,00,10.80
2007,03,19,15,01,10.80
2007,03,19,15,02,10.80
2007,03,19,15,03,10.80
2007,03,19,15,04,10.80
2007,03,19,15,05,10.80
2007,03,19,15,06,10.80
2007,03,19,15,07,10.80
2007,03,19,15,08,10.80
2007,03,19,15,09,10.80
2007,03,19,15,10,10.70
2007,03,19,15,11,10.60
2007,03,19,15,12,10.60
2007,03,19,15,13,10.60
2007,03,19,15,14,10.60
2007,03,19,15,15,10.60
2007,03,19,15,16,10.60
2007,03,19,15,17,10.60
2007,03,19,15,18,10.60
2007,03,19,15,19,10.60
2007,03,19,15,20,10.60
2007,03,19,15,21,10.60
2007,03,19,15,22,10.70
2007,03,19,15,23,10.70
2007,03,19,15,24,10.70
2007,03,19,15,25,10.70
2007,03,19,15,26,10.70
2007,03,19,15,27,10.70
2007,03,19,15,28,10.70
2007,03,19,15,29,10.60
2007,03,19,15,30,10.60
2007,03,19,15,31,10.60
2007,03,19,15,32,10.60
2007,03,19,15,33,10.50
2007,03,19,15,34,10.60
2007,03,19,15,35,10.60
2007,03,19,15,36,10.60
2007,03,19,15,37,10.60
2007,03,19,15,38,10.50
2007,03,19,15,39,10.50
2007,03,19,15,40,10.50
2007,03,19,15,41,10.50
2007,03,19,15,42,10.50
2007,03,19,15,43,10.50
2007,03,19,15,44,10.50
2007,03,19,15,45,10.50
2007,03,19,15,46,10.50
2007,03,19,15,47,10.40
2007,03,19,15,48,10.40
2007,03,19,15,49,10.40
2007,03,19,15,50,10.40
2007,03,19,15,51,10.40
2007,03,19,15,52,10.40
2007,03,19,15,53,10.40
2007,03,19,15,54,10.40
2007,03,19,15,55,10.30
2007,03,19,15,56,10.40
2007,03,19,15,57,10.40
2007,03,19,15,58,10.40
2007,03,19,15,59,10.40
2007,03,19,16,00,10.40
2007,03,19,16,01,10.40
2007,03,19,16,02,10.40
2007,03,19,16,03,10.40
2007,03,19,16,04,10.40
2007,03,19,16,05,10.40
2007,03,19,16,06,10.40
2007,03,19,16,07,10.30
2007,03,19,16,08,10.30
2007,03,19,16,09,10.30
2007,03,19,16,10,10.30
2007,03,19,16,11,10.30
2007,03,19,16,12,10.30
2007,03,19,16,13,10.30
2007,03,19,16,14,10.30
2007,03,19,16,15,10.30
2007,03,19,16,16,10.30
2007,03,19,16,17,10.30
2007,03,19,16,18,10.30
2007,03,19,16,19,10.40
2007,03,19,16,20,10.40
2007,03,19,16,21,10.30
2007,03,19,16,22,10.40
2007,03,19,16,23,10.40
2007,03,19,16,24,10.40
2007,03,19,16,25,10.50
2007,03,19,16,26,10.50
2007,03,19,16,27,10.50
2007,03,19,16,28,10.40
2007,03,19,16,29,10.40
2007,03,19,16,30,10.40
2007,03,19,16,31,10.30
2007,03,19,16,32,10.30
2007,03,19,16,33,10.30
2007,03,19,16,34,10.30
2007,03,19,16,35,10.30
2007,03,19,16,36,10.30
2007,03,19,16,37,10.30
2007,03,19,16,38,10.30
2007,03,19,16,39,10.30
2007,03,19,16,40,10.30
2007,03,19,16,41,10.30
2007,03,19,16,42,10.30
2007,03,19,16,43,10.30
2007,03,19,16,44,10.30
2007,03,19,16,45,10.30
2007,03,19,16,46,10.40
2007,03,19,16,47,10.30
2007,03,19,16,48,10.40
2007,03,19,16,49,10.30
2007,03,19,16,50,10.30
2007,03,19,16,51,10.30
2007,03,19,16,52,10.30
2007,03,19,16,53,10.30
2007,03,19,16,54,10.30
2007,03,19,16,55,10.30
2007,03,19,16,56,10.30
2007,03,19,16,57,10.40
2007,03,19,16,58,10.40
2007,03,19,16,59,10.40
2007,03,19,17,00,10.40
2007,03,19,17,01,10.40
2007,03,19,17,02,10.40
2007,03,19,17,03,10.40
2007,03,19,17,04,10.40
2007,03,19,17,05,10.40
2007,03,19,17,06,10.40
2007,03,19,17,07,10.40
2007,03,19,17,08,10.40
2007,03,19,17,09,10.40
2007,03,19,17,10,10.40
2007,03,19,17,11,10.40
2007,03,19,17,12,10.40
2007,03,19,17,13,10.40
2007,03,19,17,14,10.50
2007,03,19,17,15,10.50
2007,03,19,17,16,10.50
2007,03,19,17,17,10.50
2007,03,19,17,18,10.50
2007,03,19,17,19,10.50
2007,03,19,17,20,10.40
2007,03,19,17,21,10.40
2007,03,19,17,22,10.40
2007,03,19,17,23,10.40
2007,03,19,17,24,10.40
2007,03,19,17,25,10.40
2007,03,19,17,26,10.40
2007,03,19,17,27,10.40
2007,03,19,17,28,10.30
2007,03,19,17,29,10.30
2007,03,19,17,30,10.30
2007,03,19,17,31,10.30
2007,03,19,17,32,10.30
2007,03,19,17,33,10.30
2007,03,19,17,34,10.30
2007,03,19,17,35,10.30
2007,03,19,17,36,10.30
2007,03,19,17,37,10.30
2007,03,19,17,38,10.30
2007,03,19,17,39,10.30
2007,03,19,17,40,10.30
2007,03,19,17,41,10.20
2007,03,19,17,42,10.20
2007,03,19,17,43,10.20
2007,03,19,17,44,10.20
2007,03,19,17,45,10.20
2007,03,19,17,46,10.20
2007,03,19,17,47,10.20
2007,03,19,17,48,10.20
2007,03,19,17,49,10.20
2007,03,19,17,50,10.10
2007,03,19,17,51,10.10
2007,03,19,17,52,10.10
2007,03,19,17,53,10.10
2007,03,19,17,54,10.10
2007,03,19,17,55,10.00
2007,03,19,17,56,10.00
2007,03,19,17,57,10.00
2007,03,19,17,58,10.00
2007,03,19,17,59,10.00
2007,03,19,18,00,10.00
2007,03,19,18,01,10.00
2007,03,19,18,02,10.00
2007,03,19,18,03,10.00
2007,03,19,18,04,9.90
2007,03,19,18,05,9.90
2007,03,19,18,06,9.90
2007,03,19,18,07,9.90
2007,03,19,18,08,9.80
2007,03,19,18,09,9.80
2007,03,19,18,10,9.80
2007,03,19,18,11,9.80
2007,03,19,18,12,9.80
2007,03,19,18,13,9.80
2007,03,19,18,14,9.80
2007,03,19,18,15,9.80
2007,03,19,18,16,9.70
2007,03,19,18,17,9.70
2007,03,19,18,18,9.70
2007,03,19,18,19,9.70
2007,03,19,18,20,9.70
2007,03,19,18,21,9.70
2007,03,19,18,22,9.70
2007,03,19,18,23,9.70
2007,03,19,18,24,9.70
2007,03,19,18,25,9.70
2007,03,19,18,26,9.70
2007,03,19,18,27,9.70
2007,03,19,18,28,9.70
2007,03,19,18,29,9.70
2007,03,19,18,30,9.70
2007,03,19,18,31,9.70
2007,03,19,18,32,9.70
2007,03,19,18,33,9.60
2007,03,19,18,34,9.60
2007,03,19,18,35,9.60
2007,03,19,18,36,9.60
2007,03,19,18,37,9.60
2007,03,19,18,38,9.60
2007,03,19,18,39,9.60
2007,03,19,18,40,9.60
2007,03,19,18,41,9.60
2007,03,19,18,42,9.60
2007,03,19,18,43,9.60
2007,03,19,18,44,9.60
2007,03,19,18,45,9.60
2007,03,19,18,46,9.60
2007,03,19,18,47,9.60
2007,03,19,18,48,9.60
2007,03,19,18,49,9.60
2007,03,19,18,50,9.50
2007,03,19,18,51,9.50
2007,03,19,18,52,9.50
2007,03,19,18,53,9.50
2007,03,19,18,54,9.50
2007,03,19,18,55,9.50
2007,03,19,18,56,9.50
2007,03,19,18,57,9.40
2007,03,19,18,58,9.40
2007,03,19,18,59,9.40
2007,03,19,19,00,9.30
2007,03,19,19,01,9.30
2007,03,19,19,02,9.30
2007,03,19,19,03,9.20
2007,03,19,19,04,9.20
2007,03,19,19,05,9.10
2007,03,19,19,06,9.10
2007,03,19,19,07,9.00
2007,03,19,19,08,9.00
2007,03,19,19,09,8.90
2007,03,19,19,10,8.90
2007,03,19,19,11,8.90
2007,03,19,19,12,8.80
2007,03,19,19,13,8.80
2007,03,19,19,14,8.80
2007,03,19,19,15,8.80
2007,03,19,19,16,8.70
2007,03,19,19,17,8.70
2007,03,19,19,18,8.70
2007,03,19,19,19,8.70
2007,03,19,19,20,8.70
2007,03,19,19,21,8.60
2007,03,19,19,22,8.60
2007,03,19,19,23,8.60
2007,03,19,19,24,8.60
2007,03,19,19,25,8.60
2007,03,19,19,26,8.60
2007,03,19,19,27,8.60
2007,03,19,19,28,8.60
2007,03,19,19,29,8.60
2007,03,19,19,30,8.50
2007,03,19,19,31,8.50
2007,03,19,19,32,8.40
2007,03,19,19,33,8.40
2007,03,19,19,34,8.30
2007,03,19,19,35,8.30
2007,03,19,19,36,8.30
2007,03,19,19,37,8.20
2007,03,19,19,38,8.20
2007,03,19,19,39,8.20
2007,03,19,19,40,8.20
2007,03,19,19,41,8.10
2007,03,19,19,42,8.10
2007,03,19,19,43,8.10
2007,03,19,19,44,8.10
2007,03,19,19,45,8.10
2007,03,19,19,46,8.10
2007,03,19,19,47,8.10
2007,03,19,19,48,8.10
2007,03,19,19,49,8.10
2007,03,19,19,50,8.10
2007,03,19,19,51,8.00
2007,03,19,19,52,8.00
2007,03,19,19,53,8.00
2007,03,19,19,54,8.10
2007,03,19,19,55,8.10
2007,03,19,19,56,8.10
2007,03,19,19,57,8.00
2007,03,19,19,58,8.00
2007,03,19,19,59,8.00
2007,03,19,20,00,8.00
2007,03,19,20,01,7.90
2007,03,19,20,02,7.90
2007,03,19,20,03,7.90
2007,03,19,20,04,7.90
2007,03,19,20,05,7.90
2007,03,19,20,06,7.90
2007,03,19,20,07,7.90
2007,03,19,20,08,7.90
2007,03,19,20,09,7.90
2007,03,19,20,10,7.90
2007,03,19,20,11,7.80
2007,03,19,20,12,7.80
2007,03,19,20,13,7.80
2007,03,19,20,14,7.80
2007,03,19,20,15,7.80
2007,03,19,20,16,7.80
2007,03,19,20,17,7.80
2007,03,19,20,18,7.80
2007,03,19,20,19,7.80
2007,03,19,20,20,7.90
2007,03,19,20,21,7.90
2007,03,19,20,22,7.90
2007,03,19,20,23,7.90
2007,03,19,20,24,8.00
2007,03,19,20,25,8.00
2007,03,19,20,26,8.10
2007,03,19,20,27,8.10
2007,03,19,20,28,8.10
2007,03,19,20,29,8.10
2007,03,19,20,30,8.10
2007,03,19,20,31,8.20
2007,03,19,20,32,8.20
2007,03,19,20,33,8.20
2007,03,19,20,34,8.20
2007,03,19,20,35,8.20
2007,03,19,20,36,8.20
2007,03,19,20,37,8.20
2007,03,19,20,38,8.20
2007,03,19,20,39,8.20
2007,03,19,20,40,8.20
2007,03,19,20,41,8.20
2007,03,19,20,42,8.20
2007,03,19,20,43,8.20
2007,03,19,20,44,8.20
2007,03,19,20,45,8.10
2007,03,19,20,46,8.10
2007,03,19,20,47,8.10
2007,03,19,20,48,8.10
2007,03,19,20,49,8.10
2007,03,19,20,50,8.20
2007,03,19,20,51,8.20
2007,03,19,20,52,8.20
2007,03,19,20,53,8.20
2007,03,19,20,54,8.30
2007,03,19,20,55,8.30
2007,03,19,20,56,8.30
2007,03,19,20,57,8.30
2007,03,19,20,58,8.30
2007,03,19,20,59,8.30
2007,03,19,21,00,8.30
2007,03,19,21,01,8.30
2007,03,19,21,02,8.30
2007,03,19,21,03,8.30
2007,03,19,21,04,8.30
2007,03,19,21,05,8.30
2007,03,19,21,06,8.30
2007,03,19,21,07,8.30
2007,03,19,21,08,8.30
2007,03,19,21,09,8.30
2007,03,19,21,10,8.30
2007,03,19,21,11,8.30
2007,03,19,21,12,8.30
2007,03,19,21,13,8.30
2007,03,19,21,14,8.30
2007,03,19,21,15,8.30
2007,03,19,21,16,8.30
2007,03,19,21,17,8.30
2007,03,19,21,18,8.30
2007,03,19,21,19,8.30
2007,03,19,21,20,8.30
2007,03,19,21,21,8.30
2007,03,19,21,22,8.30
2007,03,19,21,23,8.30
2007,03,19,21,24,8.30
2007,03,19,21,25,8.30
2007,03,19,21,26,8.30
2007,03,19,21,27,8.30
2007,03,19,21,28,8.30
2007,03,19,21,29,8.30
2007,03,19,21,30,8.20
2007,03,19,21,31,8.20
2007,03,19,21,32,8.20
2007,03,19,21,33,8.20
2007,03,19,21,34,8.20
2007,03,19,21,35,8.20
2007,03,19,21,36,8.20
2007,03,19,21,37,8.20
2007,03,19,21,38,8.20
2007,03,19,21,39,8.20
2007,03,19,21,40,8.20
2007,03,19,21,41,8.20
2007,03,19,21,42,8.20
2007,03,19,21,43,8.20
2007,03,19,21,44,8.10
2007,03,19,21,45,8.10
2007,03,19,21,46,8.10
2007,03,19,21,47,8.10
2007,03,19,21,48,8.10
2007,03,19,21,49,8.10
2007,03,19,21,50,8.10
2007,03,19,21,51,8.10
2007,03,19,21,52,8.10
2007,03,19,21,53,8.10
2007,03,19,21,54,8.10
2007,03,19,21,55,8.10
2007,03,19,21,56,8.10
2007,03,19,21,57,8.10
2007,03,19,21,58,8.10
2007,03,19,21,59,8.10
2007,03,19,22,00,8.10
2007,03,19,22,01,8.10
2007,03,19,22,02,8.10
2007,03,19,22,03,8.10
2007,03,19,22,04,8.10
2007,03,19,22,05,8.10
2007,03,19,22,06,8.10
2007,03,19,22,07,8.10
2007,03,19,22,08,8.10
2007,03,19,22,09,8.10
2007,03,19,22,10,8.10
2007,03,19,22,11,8.10
2007,03,19,22,12,8.10
2007,03,19,22,13,8.00
2007,03,19,22,14,8.00
2007,03,19,22,15,8.00
2007,03,19,22,16,8.00
2007,03,19,22,17,8.00
2007,03,19,22,18,8.00
2007,03,19,22,19,8.00
2007,03,19,22,20,8.00
2007,03,19,22,21,8.00
2007,03,19,22,22,8.00
2007,03,19,22,23,8.00
2007,03,19,22,24,7.90
2007,03,19,22,25,7.90
2007,03,19,22,26,7.90
2007,03,19,22,27,7.90
2007,03,19,22,28,7.90
2007,03,19,22,29,7.90
2007,03,19,22,30,7.90
2007,03,19,22,31,7.90
2007,03,19,22,32,7.90
2007,03,19,22,33,7.90
2007,03,19,22,34,7.90
2007,03,19,22,35,7.90
2007,03,19,22,36,7.80
2007,03,19,22,37,7.90
2007,03,19,22,38,7.80
2007,03,19,22,39,7.80
2007,03,19,22,40,7.80
2007,03,19,22,41,7.80
2007,03,19,22,42,7.80
2007,03,19,22,43,7.80
2007,03,19,22,44,7.80
2007,03,19,22,45,7.70
2007,03,19,22,46,7.70
2007,03,19,22,47,7.70
2007,03,19,22,48,7.70
2007,03,19,22,49,7.70
2007,03,19,22,50,7.70
2007,03,19,22,51,7.70
2007,03,19,22,52,7.70
2007,03,19,22,53,7.70
2007,03,19,22,54,7.70
2007,03,19,22,55,7.70
2007,03,19,22,56,7.70
2007,03,19,22,57,7.70
2007,03,19,22,58,7.70
2007,03,19,22,59,7.70
2007,03,19,23,00,7.70
2007,03,19,23,01,7.70
2007,03,19,23,02,7.70
2007,03,19,23,03,7.70
2007,03,19,23,04,7.70
2007,03,19,23,05,7.70
2007,03,19,23,06,7.70
2007,03,19,23,07,7.70
2007,03,19,23,08,7.70
2007,03,19,23,09,7.60
2007,03,19,23,10,7.60
2007,03,19,23,11,7.60
2007,03,19,23,12,7.60
2007,03,19,23,13,7.60
2007,03,19,23,14,7.60
2007,03,19,23,15,7.60
2007,03,19,23,16,7.60
2007,03,19,23,17,7.50
2007,03,19,23,18,7.50
2007,03,19,23,19,7.50
2007,03,19,23,20,7.50
2007,03,19,23,21,7.50
2007,03,19,23,22,7.50
2007,03,19,23,23,7.50
2007,03,19,23,24,7.50
2007,03,19,23,25,7.40
2007,03,19,23,26,7.40
2007,03,19,23,27,7.40
2007,03,19,23,28,7.30
2007,03,19,23,29,7.30
2007,03,19,23,30,7.30
2007,03,19,23,31,7.30
2007,03,19,23,32,7.30
2007,03,19,23,33,7.30
2007,03,19,23,34,7.40
2007,03,19,23,35,7.40
2007,03,19,23,36,7.40
2007,03,19,23,37,7.40
2007,03,19,23,38,7.50
2007,03,19,23,39,7.50
2007,03,19,23,40,7.50
2007,03,19,23,41,7.50
2007,03,19,23,42,7.60
2007,03,19,23,43,7.60
2007,03,19,23,44,7.60
2007,03,19,23,45,7.60
2007,03,19,23,46,7.60
2007,03,19,23,47,7.60
2007,03,19,23,48,7.70
2007,03,19,23,49,7.60
2007,03,19,23,50,7.70
2007,03,19,23,51,7.70
2007,03,19,23,52,7.70
2007,03,19,23,53,7.70
2007,03,19,23,54,7.70
2007,03,19,23,55,7.70
2007,03,19,23,56,7.70
2007,03,19,23,57,7.70
2007,03,19,23,58,7.70
2007,03,19,23,59,7.70
